TJS-7

Last updated on Sun Nov 16 2025 00:03:44 GMT+0000 (Coordinated Universal Time)

1 49115U 21077A 25319.50374881 -.00000116 00000+0 00000+0 0 9990 2 49115 0.0465 265.1602 0000457 292.0042 299.4965 1.00270089 7417
UTC large
Height (km)
Speed (km/s)
/
Latitude / Longitude
Inclination (degrees)
Orbital Period (minutes)
Azimuth
Elevation
Range (km)
Doppler Factor

Next 0 passes for location: London (51.5072 / 0.1276)

Sorry there are no passes over London.